[[{"header":{"parameterUnit":"m.s-1","parameterCategory":1,"la1":30.2991,"la2":30.254,"lo1":-89.0895,"lo2":-89.0444,"dy":0.0017,"dx":0.0017,"nx":28,"ny":28,"refTime":"2024-04-11T09:00:00:Z","depth":0,"parameterNumber":2,"parameterNumberName":"U-component_of_WINDS"},"data":[0,0,0,0,0,0,0,0,0,0,0,0,0,0,0,0,0,0,0,0,0,0,0,0,0,0,0,0,0,0,0,0,0,0,0,0,0,0,0,0,0,0,0,0,0,0,0,0,0,0,0,0,0,0,0,0,0,0,2.1893,2.1894,0,2.1996,2.1997,2.1998,2.2042,2.2042,2.2042,2.2041,2.2148,2.2151,2.2154,0,0,0,0,0,0,0,0,0,0,0,0,0,2.1738,2.174,2.1893,2.1894,2.1896,2.1995,2.1997,2.1998,2.2042,2.2042,2.2041,2.2041,2.2147,2.2151,2.2155,0,0,0,0,0,0,0,0,0,0,0,0,0,2.1819,2.1741,2.1893,2.1929,2.1934,2.1995,2.1997,2.1999,2.2042,2.2042,2.2041,2.2041,2.2146,2.2151,2.2155,2.2189,0,0,2.2169,2.2171,0,0,0,0,0,0,0,0,2.1815,2.1825,2.1923,2.1927,2.1932,2.2006,2.1981,2.2062,2.2042,2.2001,2.2041,2.2041,2.2101,2.2109,2.2129,2.2194,2.2198,2.2169,2.2172,2.2174,2.2175,0,0,0,0,0,0,0,2.1809,2.1821,2.1934,2.1924,2.193,2.1942,2.1953,2.1997,2.2051,2.2004,2.2008,2.2019,2.2104,2.2125,2.2132,2.22,2.2169,2.2173,2.2176,2.2178,2.2299,2.2299,0,0,0,0,0,0,2.1797,2.1816,2.193,2.1937,2.1871,2.1945,2.1957,2.1982,2.2051,2.2061,2.2019,2.2021,2.2117,2.2127,2.2136,2.2181,2.2174,2.2178,2.2181,2.2298,2.2299,2.2299,0,0,0,0,0,0,2.1793,2.1807,2.1926,2.1877,2.1893,2.1948,2.1975,2.1984,2.2006,2.2062,2.2073,2.2031,2.2117,2.213,2.2176,2.2185,2.218,2.2184,2.2298,2.2298,2.2299,2.227,0,0,0,0,0,0,2.1789,2.1805,2.1818,2.1877,2.1896,2.1963,2.1976,2.1987,2.2013,2.2016,2.2076,2.2085,2.2118,2.2168,2.218,2.2191,2.2188,2.2297,2.2298,2.2299,2.227,2.227,2.2269,0,0,0,0,0,2.1783,2.1805,2.1818,2.1832,2.1912,2.1963,2.1974,2.2011,2.2014,2.2027,2.2064,2.2084,2.2182,2.2173,2.2186,2.2199,2.2296,2.2298,2.2299,2.2271,2.227,2.2269,0,0,0,0,0,0,2.1746,2.1814,2.1828,2.1871,2.1911,2.197,2.1989,2.2008,2.2049,2.205,2.2095,2.2108,2.215,2.2179,2.2167,2.2236,2.2241,2.2245,2.2215,2.2215,2.2214,2.2206,2.2192,0,0,0,0,0,2.1742,2.1777,2.1835,2.1867,2.1886,2.1934,2.1957,2.1982,2.2026,2.2043,2.2083,2.2126,2.2167,2.2192,2.2233,2.2275,2.2289,2.2291,2.229,2.2289,2.2292,2.2318,2.2319,2.2303,2.2303,2.2303,0,0,2.1736,2.1777,2.1797,2.186,2.1894,2.1931,2.1948,2.1985,2.2013,2.2049,2.2095,2.2126,2.2176,2.222,2.2242,2.2246,2.23,2.229,2.2289,2.2293,2.2319,2.232,2.2322,2.2304,2.2303,2.2303,0,0,2.1742,2.1777,2.1807,2.1841,2.1893,2.1925,2.1932,2.1989,2.2011,2.2058,2.2086,2.212,2.2189,2.2224,2.2251,2.2273,2.2293,2.2285,2.2281,2.2306,2.2307,2.2309,2.2317,2.232,2.2287,2.2287,2.2287,0,2.1728,2.1783,2.1821,2.1857,2.1885,2.1919,2.1952,2.1983,2.2045,2.2064,2.2068,2.2156,2.2192,2.2246,2.2251,2.2271,2.2282,2.2278,2.2304,2.2306,2.2308,2.2316,2.2319,2.2286,2.2286,2.2286,2.2286,0,2.1763,2.18,2.1819,2.1878,2.1908,2.1942,2.1987,2.2013,2.2035,2.2067,2.2115,2.216,2.2211,2.2225,2.2248,2.2283,2.2284,2.2295,2.2301,2.2307,2.2316,2.232,2.2284,2.2285,2.2285,2.2285,0,0,2.1748,2.1828,2.1835,2.1862,2.1922,2.1953,2.1989,2.2038,2.206,2.2102,2.2135,2.2193,2.2204,2.2235,2.2262,2.2283,2.2299,2.2292,2.2294,2.2292,2.2341,2.2333,2.2336,2.2313,2.2313,2.2314,2.2337,0,2.1763,2.1828,2.1865,2.1915,2.1951,2.1986,2.2017,2.2058,2.2089,2.2125,2.216,2.2201,2.2212,2.2231,2.2254,2.2292,2.2309,2.2291,2.2344,2.2345,2.233,2.234,2.2331,2.2351,2.2341,2.2342,2.2342,0,2.1789,2.183,2.1884,2.1941,2.1958,2.1986,2.2035,2.2068,2.2116,2.2137,2.2172,2.2199,2.224,2.2243,2.2301,2.2287,2.2312,2.2334,2.2335,2.2342,2.2344,2.2348,2.2358,2.2361,2.2348,2.2347,2.2347,0,2.1773,2.1843,2.1885,2.1907,2.1974,2.1993,2.2023,2.207,2.2098,2.2141,2.216,2.2207,2.2234,2.227,2.231,2.2308,2.2364,2.237,2.2384,2.2383,2.2394,2.2393,2.2409,2.2409,2.2409,2.2409,2.2409,0,2.1787,2.1818,2.1879,2.1904,2.1942,2.1984,2.202,2.2052,2.2094,2.2128,2.2161,2.2191,2.2242,2.2279,2.2311,2.2355,2.2366,2.2385,2.2393,2.2383,2.238,2.2399,2.2399,2.241,2.241,2.241,2.2409,0,2.1775,2.1817,2.1864,2.1925,2.1941,2.1966,2.2018,2.2045,2.2078,2.212,2.2132,2.2185,2.2231,2.2274,2.2336,2.2357,2.2401,2.2411,2.2385,2.2389,2.2401,2.2399,2.243,2.2436,2.2431,2.2431,2.2431,0,2.1781,2.1806,2.1869,2.1894,2.1922,2.1961,2.199,2.2033,2.2062,2.2119,2.2139,2.2188,2.2229,2.2301,2.2345,2.2393,2.2405,2.2413,2.2412,2.2401,2.2406,2.2404,2.2407,2.2412,2.2411,2.2411,2.2411,0,2.1787,2.1806,2.1846,2.1893,2.1927,2.1966,2.2007,2.2025,2.2076,2.2107,2.2155,2.2186,2.225,2.2298,2.2351,2.2382,2.2406,2.2411,2.2417,2.2406,2.239,2.2399,2.2383,2.241,2.241,2.241,2.241,2.241,2.1785,2.1809,2.1858,2.1901,2.1937,2.1974,2.2003,2.204,2.208,2.2134,2.2158,2.2206,2.2255,2.2328,2.236,2.2399,2.2404,2.2412,2.2414,2.2416,2.2414,2.2383,2.2409,2.2409,2.2409,2.2409,2.2409,0,2.1793,2.1826,2.1866,2.1922,2.1956,2.1975,2.2021,2.2049,2.2091,2.2134,2.2174,2.223,2.2277,2.2325,2.2375,2.2398,2.241,2.2409,2.2408,2.2415,2.2406,2.2396,2.2399,2.2399,2.2399,2.2399,2.2399,2.2399,2.1801,2.1844,2.187,2.1931,2.1965,2.2012,2.2037,2.2072,2.2107,2.2167,2.2206,2.2237,2.2283,2.2337,2.2382,2.2395,2.2412,2.2409,2.2425,2.2416,2.2416,2.2416,2.2407,2.2412,2.2412,2.2432,2.2432,2.2432]},{"header":{"parameterUnit":"m.s-1","parameterCategory":1,"la1":30.2991,"la2":30.254,"lo1":-89.0895,"lo2":-89.0444,"dy":0.0017,"dx":0.0017,"nx":28,"ny":28,"refTime":"2024-04-11T09:00:00:Z","depth":0,"parameterNumber":3,"parameterNumberName":"V-component_of_WINDS"},"data":[0,0,0,0,0,0,0,0,0,0,0,0,0,0,0,0,0,0,0,0,0,0,0,0,0,0,0,0,0,0,0,0,0,0,0,0,0,0,0,0,0,0,0,0,0,0,0,0,0,0,0,0,0,0,0,0,0,0,-2.5616,-2.5616,0,-2.5651,-2.5651,-2.5652,-2.5689,-2.569,-2.569,-2.5691,-2.5723,-2.5723,-2.5724,0,0,0,0,0,0,0,0,0,0,0,0,0,-2.558,-2.5581,-2.5616,-2.5616,-2.5617,-2.5651,-2.5651,-2.5652,-2.5689,-2.569,-2.5691,-2.5691,-2.5723,-2.5723,-2.5724,0,0,0,0,0,0,0,0,0,0,0,0,0,-2.5603,-2.5581,-2.5616,-2.564,-2.5642,-2.5651,-2.5651,-2.5652,-2.5689,-2.569,-2.5691,-2.5692,-2.5723,-2.5723,-2.5724,-2.571,0,0,-2.5725,-2.5726,0,0,0,0,0,0,0,0,-2.5602,-2.5605,-2.5636,-2.5638,-2.5641,-2.5667,-2.5651,-2.5671,-2.5689,-2.5671,-2.5691,-2.5692,-2.5703,-2.5706,-2.571,-2.5712,-2.5713,-2.5725,-2.5726,-2.5726,-2.5726,0,0,0,0,0,0,0,-2.56,-2.5603,-2.563,-2.5636,-2.5639,-2.5648,-2.5652,-2.5655,-2.5682,-2.5673,-2.5676,-2.5679,-2.5705,-2.571,-2.5711,-2.5714,-2.5725,-2.5726,-2.5726,-2.5726,-2.571,-2.5709,0,0,0,0,0,0,-2.5595,-2.5602,-2.5629,-2.5631,-2.5623,-2.5648,-2.5653,-2.5658,-2.5682,-2.5687,-2.5679,-2.5681,-2.5708,-2.5711,-2.5712,-2.5701,-2.5726,-2.5726,-2.5727,-2.571,-2.5709,-2.5709,0,0,0,0,0,0,-2.5595,-2.5598,-2.5627,-2.5617,-2.5622,-2.5648,-2.5653,-2.5658,-2.5663,-2.5687,-2.5692,-2.5679,-2.5709,-2.5712,-2.5712,-2.5702,-2.5727,-2.5727,-2.5711,-2.571,-2.5709,-2.5675,0,0,0,0,0,0,-2.5593,-2.5597,-2.5592,-2.5617,-2.5622,-2.5626,-2.5652,-2.5658,-2.5664,-2.5667,-2.5688,-2.5692,-2.571,-2.5711,-2.5712,-2.5703,-2.5727,-2.5712,-2.5711,-2.5709,-2.5678,-2.5673,-2.567,0,0,0,0,0,-2.5592,-2.558,-2.5592,-2.5595,-2.5617,-2.5626,-2.5628,-2.565,-2.5663,-2.5659,-2.5675,-2.5691,-2.5703,-2.571,-2.5712,-2.5703,-2.5713,-2.5711,-2.5709,-2.5679,-2.5674,-2.567,0,0,0,0,0,0,-2.5552,-2.5584,-2.5597,-2.5593,-2.5607,-2.5632,-2.5627,-2.5644,-2.5653,-2.5655,-2.5681,-2.5685,-2.5683,-2.5693,-2.5701,-2.5693,-2.571,-2.5709,-2.5687,-2.5682,-2.5678,-2.5676,-2.5728,0,0,0,0,0,-2.5543,-2.5548,-2.5575,-2.5569,-2.5575,-2.56,-2.5604,-2.562,-2.5635,-2.564,-2.5656,-2.5669,-2.5676,-2.5679,-2.5687,-2.5679,-2.5685,-2.5674,-2.567,-2.5667,-2.5666,-2.5665,-2.5661,-2.5703,-2.5703,-2.5703,0,0,-2.5523,-2.5542,-2.5543,-2.5561,-2.5574,-2.5578,-2.5604,-2.5607,-2.5611,-2.564,-2.5642,-2.5654,-2.567,-2.5667,-2.5667,-2.5676,-2.5656,-2.5665,-2.5662,-2.5663,-2.5663,-2.5659,-2.5655,-2.5702,-2.5702,-2.5702,0,0,-2.5491,-2.5505,-2.5502,-2.5515,-2.5535,-2.5552,-2.5551,-2.5575,-2.5585,-2.5587,-2.561,-2.5614,-2.5625,-2.5636,-2.5643,-2.5619,-2.5635,-2.562,-2.56,-2.5598,-2.5595,-2.5592,-2.5585,-2.5582,-2.5618,-2.5618,-2.5618,0,-2.5464,-2.5473,-2.5498,-2.5502,-2.551,-2.5539,-2.5537,-2.5547,-2.5567,-2.5572,-2.5582,-2.5598,-2.5611,-2.5612,-2.5606,-2.561,-2.5611,-2.5618,-2.5594,-2.5591,-2.5589,-2.5582,-2.5579,-2.5617,-2.5617,-2.5617,-2.5617,0,-2.544,-2.5446,-2.5442,-2.5463,-2.5471,-2.5471,-2.5496,-2.5501,-2.5517,-2.5533,-2.5536,-2.5552,-2.5565,-2.5566,-2.558,-2.557,-2.5575,-2.5589,-2.5607,-2.5583,-2.5577,-2.5575,-2.5614,-2.5615,-2.5615,-2.5616,0,0,-2.5382,-2.542,-2.5418,-2.5429,-2.5454,-2.5459,-2.5461,-2.5475,-2.5479,-2.5492,-2.5495,-2.5505,-2.5519,-2.5527,-2.5543,-2.5542,-2.5524,-2.5557,-2.5557,-2.5551,-2.5515,-2.5505,-2.5502,-2.5535,-2.5535,-2.5534,-2.5514,0,-2.5355,-2.5362,-2.5386,-2.5386,-2.5393,-2.5421,-2.5424,-2.5439,-2.5454,-2.5462,-2.5479,-2.5486,-2.5503,-2.5509,-2.5509,-2.5526,-2.5517,-2.5528,-2.5538,-2.5538,-2.5534,-2.5499,-2.5488,-2.5468,-2.5512,-2.5512,-2.5511,0,-2.5324,-2.5338,-2.5339,-2.5367,-2.537,-2.5372,-2.5388,-2.5395,-2.5413,-2.5425,-2.5435,-2.5454,-2.5459,-2.5475,-2.5482,-2.5489,-2.5494,-2.5504,-2.5504,-2.5506,-2.5524,-2.5501,-2.5462,-2.5459,-2.5508,-2.5508,-2.5508,0,-2.5284,-2.5303,-2.5307,-2.5315,-2.5346,-2.5347,-2.536,-2.538,-2.5387,-2.5401,-2.5407,-2.542,-2.5427,-2.5437,-2.546,-2.5469,-2.5464,-2.5482,-2.5474,-2.5474,-2.5472,-2.5472,-2.5435,-2.5474,-2.5474,-2.5474,-2.5474,0,-2.5251,-2.5251,-2.5289,-2.5292,-2.5293,-2.5321,-2.5321,-2.5336,-2.5354,-2.536,-2.5385,-2.5389,-2.5418,-2.5427,-2.5444,-2.5448,-2.545,-2.546,-2.5465,-2.5459,-2.5457,-2.5463,-2.5465,-2.5474,-2.5474,-2.5474,-2.5474,0,-2.5206,-2.5232,-2.5238,-2.5268,-2.5276,-2.5276,-2.5301,-2.5305,-2.5323,-2.533,-2.5334,-2.5361,-2.5373,-2.5396,-2.5413,-2.5425,-2.5425,-2.5433,-2.5419,-2.5422,-2.5414,-2.5415,-2.5379,-2.5377,-2.5417,-2.5416,-2.5416,0,-2.5184,-2.5185,-2.5217,-2.5224,-2.5236,-2.5246,-2.5255,-2.5283,-2.5291,-2.5314,-2.5315,-2.5329,-2.5341,-2.5358,-2.5379,-2.5393,-2.5402,-2.5389,-2.5404,-2.5398,-2.5403,-2.5404,-2.5404,-2.5385,-2.5385,-2.5384,-2.5384,0,-2.5143,-2.5157,-2.5169,-2.5187,-2.5198,-2.5213,-2.5229,-2.5232,-2.5264,-2.5272,-2.5285,-2.5295,-2.5314,-2.5328,-2.5345,-2.5358,-2.5376,-2.5379,-2.5378,-2.5372,-2.5365,-2.537,-2.5411,-2.538,-2.538,-2.538,-2.538,-2.5381,-2.511,-2.5113,-2.5137,-2.5151,-2.5167,-2.5182,-2.5187,-2.5207,-2.5219,-2.5238,-2.5254,-2.5266,-2.5286,-2.5312,-2.5324,-2.5334,-2.5342,-2.5341,-2.534,-2.534,-2.5338,-2.5363,-2.5337,-2.5337,-2.5337,-2.5337,-2.5337,0,-2.5072,-2.5089,-2.5102,-2.5125,-2.5136,-2.5155,-2.5174,-2.5182,-2.5193,-2.5211,-2.5224,-2.524,-2.5254,-2.5277,-2.5293,-2.5297,-2.5306,-2.53,-2.5301,-2.5304,-2.5328,-2.5328,-2.5293,-2.5293,-2.5293,-2.5293,-2.5293,-2.5293,-2.5053,-2.5061,-2.5077,-2.5093,-2.511,-2.5124,-2.5133,-2.5148,-2.5163,-2.518,-2.5193,-2.5209,-2.523,-2.5248,-2.5262,-2.5268,-2.5273,-2.5265,-2.5275,-2.5297,-2.5301,-2.5305,-2.5306,-2.5266,-2.5266,-2.5249,-2.5249,-2.5249]}]]